Location: Neuvy Saint Sepulchre
(46.5953°N, 1.8122°E)
Time: 10:45:26
(UTC+02:00)

ISS - Pass Details

Date: 17 April 2026
Orbit: 416 x 424 km, 51.6° (Epoch: 13 April)

Event Time Altitude Azimuth Distance (km) Brightness Sun altitude
Exits shadow 06:09:43 - 189° (S) 2,265 -0.4 -9.3°
Reaches altitude 10° 06:12:26 10° 162° (SSE) 1,493 -1.0 -8.8°
Maximum altitude 06:14:02 13° 133° (SE) 1,333 -0.9 -8.6°
Drops below altitude 10° 06:15:38 10° 105° (ESE) 1,500 -0.1 -8.3°
Sets 06:18:37 0° 76° (ENE) 2,372 2.2 -7.9°
